Wetbulb
62.50 62.27 61.73 60.47 59.04 58.39 58.11 57.86 56.90 56.81 57.05 57.09 56.59 55.73 54.66 53.75 53.12 52.62 52.14 51.72 51.25 50.95 50.85 50.70 50.86 50.89 50.85 50.95 50.84 50.77 50.75 50.69 50.42 49.47 48.60 48.55 49.03 49.21 49.23 49.03 48.82 48.52 48.02 47.51 47.39 47.25 47.17 47.10 46.97 46.87 46.81 46.56 46.33 46.22 46.06 45.80 45.38 45.08 44.81 44.64 44.36 44.06 43.75 43.19 42.64 42.55 42.58 42.42 42.04
62.58 62.29 61.13 58.57 57.27 57.62 58.26 57.86 57.32 57.07 57.15 57.43 56.95 56.09 54.94 53.96 53.40 52.90 52.46 51.88 51.73 51.57 51.52 51.26 51.03 51.08 51.00 50.96 50.93 50.93 50.84 50.66 50.42 49.62 48.93 48.93 49.19 49.35 49.21 48.94 48.63 48.30 47.87 47.46 47.34 47.17 47.10 47.16 46.93 46.66 46.58 46.48 46.28 45.94 45.55 45.23 45.13 45.00 44.84 44.56 44.16 43.98 43.68 43.17 42.81 42.80 42.73 42.57 42.09
62.72 62.43 61.62 60.28 59.18 58.65 58.57 58.37 58.16 57.87 57.73 57.38 57.17 56.30 55.16 54.24 53.89 53.33 52.76 52.26 52.18 52.09 51.87 51.52 51.30 51.17 51.25 51.18 51.13 51.10 51.01 50.90 50.47 49.84 49.40 49.27 49.28 49.23 49.08 48.81 48.53 47.90 47.46 47.44 47.35 47.33 47.31 47.23 46.68 46.08 45.81 46.19 45.95 45.55 45.23 45.28 44.98 44.84 44.69 44.42 44.27 44.04 43.81 43.53 42.99 42.67 42.59 42.24 41.95
62.84 62.57 61.77 60.36 59.32 58.95 58.73 58.73 58.31 57.95 57.73 57.31 56.95 56.29 55.37 54.67 54.31 53.82 53.18 52.61 52.34 52.19 52.12 51.71 51.52 51.44 51.36 51.25 51.12 51.18 50.88 50.31 50.31 49.84 49.56 49.40 49.23 49.08 48.88 48.69 48.34 47.84 47.59 47.64 47.55 47.59 47.66 47.56 46.87 46.19 45.77 45.61 45.47 45.33 45.27 45.21 44.75 44.61 44.57 44.53 44.43 44.12 43.76 43.51 43.01 42.80 42.55 42.10 41.60
62.77 62.50 61.62 60.20 59.58 59.29 59.23 59.10 58.43 57.84 57.56 57.17 56.74 56.23 55.59 54.87 54.45 54.03 53.40 52.63 52.34 52.31 52.37 52.06 51.87 51.59 51.36 51.16 51.17 51.15 50.92 50.32 49.02 49.17 49.73 49.43 49.23 49.02 48.73 48.51 48.14 47.79 47.62 47.78 47.70 47.95 47.93 47.54 46.76 46.17 45.77 45.47 45.50 45.47 45.55 45.38 45.05 44.66 44.58 44.77 44.58 44.35 43.95 43.43 43.10 42.79 42.54 42.14 41.69
62.85 62.50 61.62 60.35 59.86 59.68 59.49 59.31 58.54 57.95 57.48 57.16 56.72 56.30 55.66 55.02 54.51 53.94 53.30 52.68 52.52 52.61 52.37 51.54 51.10 50.82 50.90 51.26 51.11 50.98 50.89 50.59 49.78 49.58 49.58 49.25 49.11 48.89 48.67 48.37 48.04 47.85 47.67 47.77 48.04 48.12 47.89 47.11 46.54 45.93 45.66 45.61 45.39 45.67 46.00 46.10 45.46 44.89 44.47 44.41 44.28 44.08 43.69 43.25 43.12 42.85 42.52 41.90 41.55
62.96 62.55 61.61 60.37 60.06 59.82 59.59 59.20 58.57 57.99 57.56 57.30 57.22 56.80 55.99 55.01 54.43 53.92 53.54 53.06 52.90 52.70 52.01 50.85 50.77 50.86 50.97 51.16 50.96 50.92 50.82 50.45 50.11 49.74 49.48 49.00 48.85 48.58 48.35 48.04 47.95 47.87 47.77 47.81 47.93 47.93 47.49 46.70 46.14 45.42 44.78 44.51 45.42 46.05 46.39 46.29 45.75 45.06 44.33 43.86 44.03 43.87 43.45 42.93 43.02 42.71 42.23 41.59 41.19
63.22 62.68 61.75 60.65 60.29 60.00 59.78 59.25 58.51 57.89 57.47 57.31 57.47 57.30 56.55 55.06 54.50 54.16 53.73 53.24 52.92 52.53 52.07 51.36 51.54 51.46 51.23 51.10 50.94 50.85 50.66 50.30 49.78 49.47 49.17 48.83 48.73 48.46 48.14 47.96 47.84 47.74 47.75 47.80 47.73 47.47 47.00 46.48 45.89 45.36 44.98 45.07 45.48 45.78 46.04 46.39 45.67 44.90 44.12 43.59 43.80 43.77 43.44 42.90 42.81 42.52 41.99 41.30 40.95
63.15 62.68 61.89 60.87 60.44 60.15 59.93 59.34 58.73 58.09 57.64 57.66 57.80 57.68 56.86 55.22 54.61 54.09 53.73 53.15 52.70 52.43 52.26 51.78 51.56 51.48 51.20 50.94 50.82 50.68 50.58 50.17 49.61 49.30 49.01 48.91 48.65 48.24 47.93 47.71 47.60 47.58 47.57 47.58 47.54 47.19 46.73 46.15 45.75 45.55 45.53 45.68 45.56 45.47 45.61 46.00 45.16 44.54 44.09 43.65 43.49 43.33 43.23 43.07 42.75 42.43 42.06 41.26 40.83
62.96 62.62 61.90 60.81 60.43 60.06 59.85 59.62 59.16 58.63 58.16 58.06 58.22 57.76 56.14 53.10 53.58 53.83 53.85 53.29 52.77 52.43 52.37 51.92 51.56 51.24 50.98 50.83 50.65 50.65 50.58 50.12 49.62 49.22 48.86 48.64 48.25 47.94 47.74 47.48 47.37 47.38 47.32 47.29 47.31 46.99 46.61 45.86 45.42 45.50 45.83 45.90 45.62 45.47 45.22 45.07 44.61 44.16 43.77 43.47 43.02 42.94 42.82 42.71 42.92 42.71 42.25 41.30 40.83
62.82 62.48 61.83 60.81 60.42 59.98 59.76 59.74 59.21 58.87 58.37 58.24 58.33 57.64 55.94 53.12 53.72 53.94 53.84 53.37 52.97 52.65 52.25 51.92 51.49 51.12 50.82 50.79 50.75 50.61 50.39 50.05 49.51 49.08 48.66 48.40 47.90 47.76 47.57 47.45 47.23 47.24 47.21 47.19 47.12 46.71 46.35 45.70 45.42 45.37 45.51 45.95 45.82 45.29 44.90 44.62 44.41 44.09 43.65 43.13 42.96 42.64 42.48 42.46 42.40 42.46 42.19 41.39 40.94
62.74 62.40 61.83 60.95 60.66 60.14 59.90 59.73 59.36 58.91 58.52 58.24 58.22 57.36 56.12 54.79 54.74 54.21 53.76 53.52 52.97 52.52 52.14 51.85 51.43 51.14 50.92 50.97 50.90 50.47 50.12 49.94 49.40 48.91 48.49 48.32 48.03 47.67 47.40 47.29 47.31 47.29 47.23 47.11 46.89 46.56 46.01 45.69 45.64 45.44 45.39 45.78 45.66 45.37 44.95 44.80 44.41 44.09 43.76 43.41 43.18 42.76 42.40 42.15 41.88 41.75 41.60 41.02 40.75
62.60 62.25 61.75 61.10 60.66 60.21 59.90 59.65 59.43 59.00 58.56 58.34 57.94 57.09 55.87 54.85 54.63 54.13 53.69 53.51 52.76 52.31 51.98 51.58 51.23 51.15 51.14 50.99 50.91 50.56 50.21 49.81 49.28 48.85 48.28 48.03 47.81 47.44 47.33 47.32 47.25 47.23 47.05 46.83 46.61 46.29 45.94 45.69 45.62 45.44 45.25 45.44 45.46 45.25 45.01 44.83 44.46 44.14 43.72 43.39 43.06 42.66 42.30 42.06 41.59 41.28 41.12 40.90 40.43
62.45 62.03 61.60 61.10 60.59 60.06 59.75 59.65 59.36 59.00 58.63 58.49 58.02 56.95 55.81 54.94 54.43 53.93 53.64 53.31 52.69 52.17 51.78 51.23 51.00 50.92 50.99 51.14 50.92 50.57 50.23 49.69 49.14 48.70 48.24 47.85 47.56 47.34 47.13 47.30 47.15 46.92 46.73 46.46 46.11 45.96 45.85 45.61 45.57 45.49 45.47 45.39 45.33 45.14 45.00 44.87 44.51 44.07 43.67 43.19 42.85 42.55 42.25 41.86 41.44 41.16 40.90 40.83 40.35
62.16 61.81 61.52 61.02 60.44 59.99 59.68 59.51 59.36 59.14 58.86 58.50 57.81 56.81 55.66 55.02 54.23 53.64 53.20 53.07 52.46 51.91 51.42 51.01 50.85 50.71 50.78 51.01 50.87 50.59 50.17 49.61 48.98 48.52 48.00 47.64 47.56 47.27 47.06 47.10 46.88 46.55 46.22 45.96 45.86 45.82 45.79 45.77 45.74 45.69 45.67 45.52 45.47 45.37 45.15 44.90 44.43 43.96 43.55 43.15 42.78 42.42 42.11 41.89 41.66 41.22 40.91 40.71 40.16
61.80 61.51 61.30 60.94 60.37 59.92 59.68 59.67 59.74 59.44 58.86 58.37 57.60 56.45 55.52 54.95 54.31 53.50 52.83 52.58 52.25 51.62 51.05 50.72 50.79 50.85 50.78 50.49 50.54 50.35 49.95 49.22 48.73 48.23 47.81 47.53 47.30 47.07 46.77 46.69 46.46 46.19 45.97 45.92 45.84 45.81 45.74 45.98 45.85 45.79 45.64 45.54 45.47 45.34 45.05 44.58 44.10 43.75 43.39 43.22 42.87 42.63 42.35 41.95 41.71 41.32 41.05 40.79 40.31
61.66 61.29 61.08 60.79 60.37 59.92 59.76 59.82 59.89 59.37 58.65 58.01 57.17 56.16 55.38 54.80 54.16 53.06 52.03 51.79 51.75 51.27 50.78 50.57 50.79 50.77 50.58 50.09 50.03 49.94 49.57 48.87 48.34 47.90 47.54 47.31 46.95 46.72 46.56 46.28 46.12 46.03 45.92 45.85 45.83 45.81 45.89 45.86 45.83 45.74 45.56 45.38 45.29 45.03 44.66 44.02 43.63 43.45 43.40 43.34 43.16 42.99 42.70 42.02 41.88 41.48 41.18 40.82 40.48
61.52 61.23 60.93 60.72 60.29 60.00 59.92 60.05 59.75 59.02 58.30 57.52 56.73 55.87 55.16 54.50 53.65 52.77 51.76 51.42 51.36 51.17 50.76 50.50 50.71 50.61 50.50 50.19 49.84 49.35 48.88 48.35 47.86 47.57 47.27 47.04 46.75 46.46 46.25 46.02 46.01 45.99 46.03 45.99 46.03 46.00 45.89 45.99 45.94 45.80 45.52 45.23 45.15 44.79 44.30 43.65 43.32 43.30 43.30 43.26 43.14 42.96 42.78 42.51 42.29 41.86 41.37 40.82 40.54
61.38 61.16 60.94 60.57 60.44 60.15 59.92 59.74 59.24 58.60 57.81 57.23 56.30 55.52 54.72 54.00 53.21 52.50 51.93 51.57 51.18 51.02 50.97 50.62 50.54 50.49 50.35 50.03 49.41 48.43 47.70 47.84 47.60 47.32 47.15 46.87 46.65 46.30 46.07 45.90 45.94 46.08 46.23 46.15 46.26 46.30 46.28 46.26 46.08 45.91 45.67 45.33 45.06 44.64 44.18 43.68 43.34 43.20 43.19 43.05 42.78 42.74 42.65 42.73 42.52 42.25 41.82 41.32 40.97
61.46 61.24 60.94 60.72 60.51 60.29 59.99 59.31 58.45 57.80 57.16 56.58 55.66 54.87 54.01 53.29 52.64 52.06 51.63 51.52 51.23 51.29 51.28 50.79 50.51 50.33 49.94 49.46 48.62 47.77 47.14 47.35 47.26 47.08 46.83 46.75 46.47 46.24 46.00 45.95 46.06 46.19 46.36 46.37 46.55 46.61 46.64 46.59 46.13 45.92 45.66 45.22 44.78 44.34 43.84 43.38 43.14 43.12 42.96 42.74 42.72 42.69 42.64 42.59 42.55 42.47 42.16 41.80 41.36
61.53 61.31 61.16 60.86 60.58 60.07 59.33 58.30 57.22 56.57 55.86 55.15 54.52 53.80 53.08 52.57 52.26 51.90 51.61 51.54 51.50 51.59 51.32 50.91 50.48 49.82 49.18 48.49 47.80 47.33 47.02 46.83 47.03 46.74 46.44 46.30 46.23 46.07 45.95 45.99 46.18 46.29 46.48 46.68 46.74 46.79 46.71 46.41 45.96 45.55 45.10 44.50 44.12 43.80 43.45 43.01 42.85 42.82 42.76 42.57 42.66 42.71 42.76 42.59 42.59 42.40 42.16 41.85 41.52
61.66 61.44 61.15 60.57 59.93 58.68 57.34 56.15 55.56 55.13 54.50 54.09 53.62 53.13 52.70 52.41 52.25 52.11 52.08 51.85 51.70 51.58 51.28 50.72 49.86 49.06 48.33 47.76 47.29 46.91 46.80 46.73 46.99 46.78 46.33 46.06 45.97 45.92 45.95 46.10 46.28 46.44 46.64 46.84 46.94 46.74 46.24 45.66 45.22 44.88 44.45 43.74 43.48 43.25 43.10 42.68 42.73 42.61 42.45 42.34 42.49 42.58 42.73 42.64 42.50 42.33 42.13 41.80 41.48
61.60 60.88 59.92 58.77 57.54 55.85 54.63 54.64 54.52 54.19 53.72 53.27 52.96 52.78 52.72 52.59 52.49 52.48 52.41 52.38 51.77 51.37 50.90 49.92 49.09 48.51 48.05 47.72 47.34 47.13 46.89 46.90 46.96 46.73 46.35 46.08 46.01 46.02 46.08 46.34 46.41 46.56 46.71 46.94 46.44 46.04 45.61 45.02 44.56 44.13 43.72 43.14 43.01 42.95 42.79 42.49 42.40 42.36 42.17 42.02 42.24 42.33 42.45 42.46 42.31 42.07 41.87 41.69 41.37
58.66 57.63 56.91 56.21 55.54 54.88 54.48 54.57 54.37 54.11 53.78 53.68 53.63 53.48 53.21 52.72 52.49 52.27 52.14 52.36 51.56 50.83 50.16 49.10 48.65 48.46 48.23 47.87 47.62 47.31 46.89 46.62 46.33 46.26 46.11 46.04 46.01 46.19 46.31 46.61 46.66 46.58 46.30 45.87 45.00 44.58 44.13 43.31 43.58 43.39 42.95 42.79 42.83 42.59 42.42 42.28 42.02 42.00 41.90 41.72 41.72 41.82 41.98 42.05 41.87 41.65 41.31 41.03 40.71
55.52 55.13 54.98 54.90 54.77 54.77 54.77 54.72 54.50 54.41 54.49 54.78 55.21 55.10 54.43 52.76 52.13 51.74 51.48 51.02 50.21 49.71 49.19 48.63 48.56 48.42 48.17 47.62 47.23 46.98 46.52 46.09 45.78 45.63 45.66 45.73 46.03 46.31 46.54 46.81 46.74 46.43 45.49 43.65 41.55 40.58 40.27 39.95 41.76 42.39 42.63 42.74 42.70 42.40 42.16 42.14 41.99 41.70 41.46 41.15 41.15 41.30 41.39 41.33 41.29 41.12 40.80 40.44 40.21
54.54 54.42 54.26 54.32 54.41 54.38 54.48 54.67 55.01 55.22 55.36 55.54 55.60 55.38 54.81 53.83 52.32 51.40 50.72 49.80 49.25 49.02 48.91 48.67 48.40 47.78 47.22 47.21 46.72 46.28 45.87 45.67 45.50 45.44 45.48 45.63 45.90 46.28 46.49 46.64 46.37 45.96 44.82 42.13 39.46 38.64 38.85 39.30 39.59 39.96 40.87 42.85 42.40 42.07 41.75 41.59 41.55 41.51 41.23 40.99 40.83 40.75 40.71 40.51 40.62 40.59 40.50 40.46 40.26
54.24 54.09 54.01 54.15 54.23 54.45 54.73 55.30 55.68 55.73 55.65 55.63 55.49 55.26 54.75 54.03 52.93 51.82 50.35 49.02 48.79 48.88 49.02 48.86 48.30 46.91 46.01 47.14 46.34 45.69 45.32 45.29 45.42 45.48 45.58 45.56 45.65 45.90 45.97 45.86 45.59 45.05 43.65 40.66 38.74 38.26 38.47 39.08 38.88 38.86 39.64 41.79 41.93 41.66 41.31 40.99 40.95 40.91 40.79 40.51 40.43 40.35 40.31 40.15 40.16 40.12 40.26 40.29 40.33
54.13 54.02 54.03 54.00 54.06 54.23 54.61 55.33 55.70 55.69 55.69 55.78 55.60 55.33 54.72 53.85 52.82 51.65 50.20 48.86 48.80 48.96 48.97 48.68 47.68 46.96 46.50 46.67 45.76 45.27 45.11 45.27 45.32 45.28 45.30 45.37 45.40 45.55 45.56 45.24 45.06 44.24 42.49 39.65 38.68 38.44 38.68 39.03 39.00 38.85 38.83 39.13 40.91 41.32 40.99 40.51 40.31 40.04 39.88 39.76 39.88 39.92 40.08 40.16 40.20 40.16 40.04 40.00 40.30
53.97 53.90 53.78 53.56 53.65 53.96 54.28 54.68 54.97 55.29 55.62 55.84 55.71 55.22 54.30 53.19 52.33 51.25 49.92 48.69 48.56 48.50 48.40 47.86 46.94 46.74 46.48 45.56 45.17 45.04 45.02 45.13 45.18 45.18 45.27 45.17 45.16 45.18 45.08 44.66 44.11 42.66 40.78 38.71 38.67 38.70 38.80 38.95 38.74 38.49 38.47 38.71 39.88 40.51 40.59 40.20 39.99 39.64 39.37 39.26 39.22 39.33 39.41 39.61 39.72 39.84 39.80 39.80 39.96
53.98 53.80 53.57 53.36 53.49 53.77 54.01 54.48 54.84 55.10 55.21 55.29 55.04 54.29 53.37 52.27 51.45 50.50 49.52 48.61 48.37 48.07 47.74 47.16 46.52 46.07 45.62 44.94 44.86 44.80 44.78 44.80 45.06 45.11 45.19 45.13 44.75 44.58 44.12 43.28 43.20 42.37 40.69 38.37 38.75 38.87 38.98 38.95 38.60 38.13 37.75 37.82 38.39 39.33 39.96 39.88 39.37 38.87 38.60 38.64 38.56 38.56 38.56 38.67 38.79 38.94 39.21 39.45 39.49
54.14 53.99 53.75 53.53 53.59 53.73 54.19 54.62 54.95 54.91 54.74 54.40 53.96 53.14 52.11 51.25 50.65 49.97 49.25 48.57 48.14 47.37 46.52 46.06 45.55 45.13 44.78 44.79 44.61 44.43 44.40 44.53 44.80 45.00 44.96 44.72 43.81 43.50 43.45 43.12 43.09 42.26 40.57 38.20 38.72 38.99 39.01 39.03 38.60 38.08 37.52 37.08 37.57 38.75 39.60 39.45 39.03 38.72 38.40 38.14 37.99 37.92 37.92 37.99 37.95 38.10 38.37 38.59 38.71
54.44 54.13 54.06 53.86 53.91 54.17 54.43 54.70 54.61 54.28 53.91 53.48 52.84 52.07 51.36 50.64 50.19 49.56 49.00 48.21 47.42 46.43 45.48 44.81 44.56 44.35 44.34 44.47 44.37 44.22 44.26 44.45 44.84 44.84 44.71 44.36 43.74 43.32 42.96 42.63 42.95 41.92 40.13 38.29 38.47 38.66 38.90 38.98 38.63 38.12 37.43 36.72 37.03 38.17 39.11 39.09 38.95 38.60 38.25 37.99 37.77 37.54 37.51 37.65 37.58 37.65 37.72 38.05 38.21
54.49 54.27 54.19 54.06 54.11 54.27 54.32 54.24 53.69 53.24 52.77 52.19 51.71 51.12 50.59 50.18 49.47 48.84 48.24 47.39 46.27 45.45 44.75 44.19 44.00 44.00 44.03 44.12 44.01 44.06 44.25 44.54 44.54 44.22 43.80 43.55 43.37 43.13 42.81 42.32 42.86 41.89 40.01 38.40 38.30 38.36 38.40 38.56 38.43 38.01 37.41 36.49 37.03 38.01 38.83 38.92 38.90 38.59 38.16 37.83 37.61 37.46 37.43 37.43 37.58 37.58 37.65 37.90 38.09
54.15 54.01 53.91 53.85 53.70 53.60 53.38 52.94 52.35 51.76 51.31 51.01 50.62 50.07 49.57 49.07 48.32 47.65 47.02 45.96 45.25 44.88 44.54 44.15 44.12 44.15 44.25 44.29 44.22 44.15 44.12 44.00 44.12 44.08 43.91 43.64 43.20 42.84 42.46 42.28 42.75 41.81 40.05 38.56 38.20 38.14 38.20 38.22 38.19 37.95 37.47 36.31 37.00 37.86 38.57 38.62 38.54 38.31 37.88 37.59 37.49 37.46 37.42 37.47 37.54 37.73 37.87 37.96 38.12
53.65 53.43 53.14 53.08 52.79 52.41 51.98 51.49 51.03 50.52 50.09 49.70 49.31 48.77 48.40 47.86 47.19 46.67 45.76 44.59 44.31 44.37 44.52 44.33 44.44 44.43 44.49 44.53 44.61 44.48 44.10 43.46 43.64 43.55 43.25 43.03 42.68 42.37 42.21 42.42 42.91 41.63 39.62 38.48 38.16 38.06 38.02 38.03 37.95 37.79 37.36 36.25 36.90 37.57 38.18 38.17 37.99 37.78 37.65 37.44 37.26 37.12 37.17 37.28 37.46 37.68 37.87 38.02 38.18
53.07 52.67 52.30 51.93 51.58 51.24 50.83 50.38 49.95 49.53 49.07 48.42 47.88 47.56 47.32 46.92 46.50 45.89 45.06 43.76 43.88 44.20 44.35 44.28 44.33 44.36 44.40 44.50 44.60 44.18 43.58 43.45 43.20 42.92 42.55 42.25 42.24 42.30 42.39 42.71 43.31 41.80 39.55 38.31 38.06 37.87 37.91 37.83 37.66 37.40 37.15 36.87 37.18 37.45 37.73 37.67 37.58 37.46 37.22 37.08 36.90 36.91 36.96 37.07 37.35 37.58 37.91 38.10 38.30
52.50 51.97 51.34 50.91 50.66 50.41 50.12 49.63 49.03 48.43 47.94 47.35 47.06 46.73 46.40 46.22 45.84 45.33 44.74 43.88 44.16 44.29 44.23 44.25 44.26 44.18 44.23 44.37 44.21 43.97 43.61 43.58 43.15 42.66 42.24 41.79 42.04 42.31 42.65 42.86 43.76 42.29 39.92 38.41 37.98 37.91 37.78 37.78 37.51 37.15 36.81 36.72 37.13 37.23 37.34 37.23 37.07 36.90 36.77 36.60 36.58 36.68 36.85 37.09 37.25 37.40 37.70 37.94 37.90
51.97 51.38 50.83 50.21 49.95 49.74 49.32 48.81 47.92 47.35 46.90 46.70 46.56 46.28 46.01 45.74 45.38 44.94 44.32 43.49 44.19 44.38 44.29 44.30 44.18 44.19 44.33 44.27 43.92 43.76 43.56 43.49 43.06 42.79 42.57 42.34 42.58 42.63 42.74 43.05 43.56 42.81 41.14 39.00 38.13 37.78 37.73 37.78 37.49 36.99 36.58 36.38 36.93 37.13 37.16 36.90 36.47 36.38 36.47 36.51 36.61 36.63 36.76 37.13 37.23 37.34 37.40 37.37 37.33
51.49 50.98 50.43 49.80 49.38 49.01 48.51 47.85 47.23 46.73 46.47 46.31 46.14 45.95 45.77 45.49 45.12 44.79 44.41 43.83 44.55 44.62 44.51 44.36 44.37 44.31 44.05 43.56 43.39 43.28 43.40 43.58 43.34 43.16 43.07 43.38 43.09 42.50 42.16 42.82 43.14 42.81 41.60 39.22 38.00 37.54 37.49 37.68 37.48 36.98 36.44 36.03 36.84 37.14 37.05 36.75 36.17 36.02 36.19 36.39 36.42 36.41 36.51 36.90 37.11 37.18 37.21 37.05 37.95
50.92 50.51 49.96 49.39 48.84 48.29 47.77 47.35 46.89 46.71 46.44 46.14 45.90 45.74 45.64 45.45 44.93 44.76 44.76 44.48 45.02 45.02 44.81 44.53 44.34 44.18 43.63 42.38 42.80 43.15 43.54 43.97 44.26 43.95 43.38 43.44 43.13 41.88 41.14 42.05 42.62 42.53 41.56 39.45 37.93 37.43 37.45 37.59 37.44 37.07 36.53 35.87 36.74 37.07 36.92 36.63 36.08 35.80 35.91 36.09 36.09 36.09 36.17 36.49 36.78 37.02 37.09 37.00 37.75
50.32 49.93 49.41 48.80 48.29 47.89 47.47 47.02 46.91 46.81 46.72 46.39 46.09 45.79 45.44 45.18 44.96 44.94 45.03 44.96 45.19 45.01 44.78 44.47 44.48 44.29 43.52 42.04 42.68 43.22 43.79 44.06 44.46 44.34 43.81 42.80 42.77 41.84 41.11 41.88 42.25 42.33 41.88 40.55 38.71 37.79 37.49 37.65 37.63 37.31 36.75 35.82 36.53 36.83 36.95 36.66 36.02 35.64 35.58 35.98 36.07 36.03 35.98 36.04 36.34 36.58 36.74 36.90 37.33
MSLP
1013.69 1013.89 1014.09 1014.29 1014.57 1014.85 1015.05 1015.21 1015.37 1015.53 1015.77 1016.01 1016.21 1016.41 1016.69 1016.97 1017.25 1017.53 1017.85 1018.13 1018.37 1018.61 1018.81 1019.01 1019.21 1019.37 1019.53 1019.73 1019.89 1020.05 1020.17 1020.33 1020.53 1020.77 1020.97 1021.13 1021.29 1021.45 1021.57 1021.73 1021.93 1022.13 1022.33 1022.49 1022.65 1022.81 1022.89 1023.01 1023.13 1023.25 1023.37 1023.45 1023.57 1023.69 1023.81 1023.89 1024.05 1024.13 1024.25 1024.37 1024.41 1024.49 1024.57 1024.69 1024.85 1024.89 1024.93 1024.97 1025.05
1013.41 1013.61 1013.85 1014.13 1014.41 1014.65 1014.89 1015.01 1015.17 1015.33 1015.53 1015.73 1015.93 1016.13 1016.41 1016.73 1017.01 1017.33 1017.61 1017.89 1018.13 1018.37 1018.57 1018.81 1019.01 1019.21 1019.41 1019.57 1019.77 1019.89 1020.05 1020.25 1020.41 1020.65 1020.85 1021.01 1021.21 1021.33 1021.45 1021.65 1021.85 1022.09 1022.25 1022.45 1022.61 1022.77 1022.85 1022.97 1023.13 1023.25 1023.33 1023.41 1023.53 1023.65 1023.73 1023.85 1023.97 1024.13 1024.21 1024.29 1024.41 1024.45 1024.57 1024.69 1024.77 1024.85 1024.89 1024.97 1025.01
1013.17 1013.41 1013.65 1013.93 1014.21 1014.49 1014.69 1014.89 1015.05 1015.17 1015.33 1015.53 1015.69 1015.93 1016.21 1016.53 1016.81 1017.09 1017.41 1017.69 1017.89 1018.13 1018.33 1018.57 1018.81 1019.01 1019.21 1019.41 1019.61 1019.81 1019.97 1020.09 1020.29 1020.57 1020.73 1020.93 1021.09 1021.21 1021.41 1021.61 1021.85 1022.05 1022.25 1022.41 1022.57 1022.69 1022.85 1022.97 1023.09 1023.17 1023.25 1023.41 1023.49 1023.57 1023.69 1023.85 1023.97 1024.05 1024.17 1024.25 1024.33 1024.41 1024.49 1024.61 1024.69 1024.77 1024.85 1024.89 1024.93
1012.97 1013.21 1013.49 1013.77 1014.05 1014.25 1014.49 1014.65 1014.85 1014.97 1015.17 1015.37 1015.53 1015.73 1015.97 1016.29 1016.57 1016.89 1017.21 1017.49 1017.73 1017.93 1018.13 1018.29 1018.53 1018.73 1018.97 1019.25 1019.49 1019.69 1019.85 1020.01 1020.25 1020.45 1020.65 1020.81 1020.97 1021.13 1021.33 1021.53 1021.73 1021.97 1022.17 1022.29 1022.49 1022.65 1022.73 1022.85 1023.01 1023.13 1023.25 1023.37 1023.45 1023.53 1023.65 1023.81 1023.93 1024.01 1024.13 1024.17 1024.25 1024.33 1024.41 1024.57 1024.65 1024.69 1024.81 1024.85 1024.89
1012.69 1012.97 1013.25 1013.61 1013.89 1014.09 1014.25 1014.41 1014.61 1014.85 1015.05 1015.25 1015.41 1015.65 1015.89 1016.13 1016.41 1016.69 1016.97 1017.29 1017.53 1017.69 1017.85 1018.05 1018.25 1018.49 1018.77 1019.05 1019.29 1019.53 1019.69 1019.89 1020.13 1020.37 1020.57 1020.73 1020.89 1021.05 1021.25 1021.49 1021.69 1021.89 1022.09 1022.25 1022.41 1022.53 1022.65 1022.81 1022.97 1023.13 1023.25 1023.33 1023.41 1023.49 1023.57 1023.69 1023.85 1023.97 1024.05 1024.13 1024.13 1024.25 1024.37 1024.49 1024.57 1024.65 1024.73 1024.81 1024.85
1012.49 1012.77 1013.13 1013.45 1013.69 1013.93 1014.09 1014.25 1014.45 1014.69 1014.93 1015.13 1015.37 1015.57 1015.77 1016.01 1016.25 1016.53 1016.81 1017.09 1017.29 1017.45 1017.65 1017.89 1018.09 1018.33 1018.61 1018.93 1019.13 1019.37 1019.57 1019.85 1020.05 1020.25 1020.41 1020.65 1020.85 1021.01 1021.21 1021.41 1021.61 1021.81 1021.97 1022.13 1022.25 1022.41 1022.57 1022.69 1022.89 1023.05 1023.17 1023.29 1023.37 1023.41 1023.53 1023.61 1023.73 1023.89 1024.01 1024.13 1024.13 1024.21 1024.29 1024.41 1024.53 1024.61 1024.69 1024.81 1024.85
1012.25 1012.53 1012.93 1013.33 1013.57 1013.81 1013.97 1014.17 1014.37 1014.61 1014.85 1015.05 1015.25 1015.45 1015.65 1015.85 1016.09 1016.33 1016.57 1016.85 1017.13 1017.33 1017.53 1017.69 1017.93 1018.17 1018.49 1018.77 1019.01 1019.25 1019.45 1019.69 1019.93 1020.13 1020.33 1020.53 1020.69 1020.93 1021.13 1021.33 1021.53 1021.73 1021.89 1022.05 1022.17 1022.33 1022.45 1022.61 1022.81 1022.97 1023.13 1023.25 1023.33 1023.41 1023.41 1023.53 1023.65 1023.81 1023.97 1024.05 1024.09 1024.13 1024.25 1024.41 1024.49 1024.57 1024.69 1024.77 1024.85
1011.97 1012.29 1012.69 1013.13 1013.45 1013.65 1013.85 1014.05 1014.29 1014.57 1014.77 1014.93 1015.13 1015.29 1015.49 1015.69 1015.97 1016.25 1016.45 1016.73 1016.97 1017.17 1017.37 1017.53 1017.69 1017.97 1018.29 1018.57 1018.85 1019.09 1019.29 1019.53 1019.85 1020.09 1020.25 1020.41 1020.61 1020.85 1021.05 1021.25 1021.45 1021.61 1021.77 1021.89 1022.05 1022.21 1022.37 1022.57 1022.69 1022.85 1023.05 1023.21 1023.29 1023.33 1023.37 1023.49 1023.53 1023.69 1023.85 1023.93 1024.01 1024.09 1024.21 1024.29 1024.41 1024.53 1024.65 1024.73 1024.81
1011.77 1012.09 1012.49 1012.93 1013.25 1013.49 1013.69 1013.93 1014.17 1014.41 1014.65 1014.85 1014.97 1015.13 1015.29 1015.57 1015.89 1016.17 1016.41 1016.61 1016.85 1017.01 1017.17 1017.41 1017.57 1017.85 1018.13 1018.41 1018.69 1018.97 1019.21 1019.45 1019.73 1019.97 1020.17 1020.37 1020.57 1020.77 1020.97 1021.13 1021.33 1021.49 1021.65 1021.81 1021.97 1022.13 1022.25 1022.45 1022.61 1022.77 1022.93 1023.09 1023.17 1023.25 1023.33 1023.41 1023.53 1023.65 1023.73 1023.85 1023.97 1024.01 1024.09 1024.17 1024.33 1024.45 1024.57 1024.65 1024.73
1011.57 1011.89 1012.33 1012.77 1013.09 1013.33 1013.57 1013.81 1014.05 1014.29 1014.53 1014.69 1014.85 1015.01 1015.21 1015.49 1015.81 1016.05 1016.25 1016.45 1016.69 1016.85 1017.05 1017.25 1017.45 1017.73 1018.05 1018.33 1018.57 1018.81 1019.05 1019.29 1019.57 1019.85 1020.05 1020.25 1020.41 1020.57 1020.81 1021.01 1021.17 1021.33 1021.53 1021.69 1021.89 1022.05 1022.21 1022.41 1022.57 1022.73 1022.85 1022.97 1023.09 1023.17 1023.25 1023.37 1023.49 1023.57 1023.65 1023.77 1023.89 1023.97 1024.01 1024.13 1024.21 1024.33 1024.45 1024.57 1024.61
1011.41 1011.69 1012.13 1012.57 1012.89 1013.17 1013.45 1013.73 1013.97 1014.17 1014.41 1014.57 1014.73 1014.89 1015.13 1015.41 1015.69 1015.93 1016.13 1016.29 1016.57 1016.77 1016.97 1017.13 1017.33 1017.61 1017.93 1018.17 1018.41 1018.65 1018.85 1019.13 1019.41 1019.69 1019.89 1020.13 1020.25 1020.45 1020.65 1020.85 1021.01 1021.17 1021.37 1021.57 1021.77 1021.97 1022.17 1022.37 1022.57 1022.69 1022.77 1022.85 1022.97 1023.09 1023.21 1023.25 1023.37 1023.41 1023.53 1023.69 1023.81 1023.89 1023.97 1023.97 1024.09 1024.13 1024.25 1024.33 1024.41
1011.21 1011.53 1011.93 1012.33 1012.73 1013.05 1013.33 1013.65 1013.85 1014.05 1014.25 1014.41 1014.57 1014.73 1014.97 1015.25 1015.53 1015.77 1015.97 1016.21 1016.45 1016.69 1016.81 1016.97 1017.17 1017.45 1017.73 1017.97 1018.25 1018.45 1018.69 1018.93 1019.17 1019.41 1019.69 1019.89 1020.09 1020.29 1020.53 1020.69 1020.89 1021.05 1021.25 1021.41 1021.69 1021.89 1022.09 1022.29 1022.45 1022.57 1022.69 1022.77 1022.89 1022.97 1023.09 1023.17 1023.25 1023.33 1023.41 1023.53 1023.69 1023.77 1023.85 1023.89 1023.93 1023.97 1024.01 1024.13 1024.21
1011.13 1011.45 1011.85 1012.21 1012.57 1012.89 1013.21 1013.49 1013.69 1013.89 1014.13 1014.25 1014.41 1014.61 1014.89 1015.17 1015.41 1015.65 1015.85 1016.13 1016.33 1016.57 1016.69 1016.85 1017.09 1017.33 1017.57 1017.81 1018.01 1018.25 1018.41 1018.65 1018.89 1019.13 1019.41 1019.69 1019.89 1020.13 1020.41 1020.61 1020.77 1020.97 1021.13 1021.29 1021.53 1021.77 1021.97 1022.13 1022.29 1022.45 1022.57 1022.69 1022.81 1022.85 1022.93 1022.97 1023.05 1023.17 1023.25 1023.37 1023.45 1023.61 1023.69 1023.77 1023.81 1023.85 1023.85 1023.93 1024.01
1011.01 1011.37 1011.69 1012.05 1012.41 1012.77 1013.09 1013.33 1013.53 1013.77 1013.97 1014.13 1014.29 1014.53 1014.81 1015.09 1015.29 1015.53 1015.73 1015.97 1016.21 1016.45 1016.65 1016.85 1017.05 1017.25 1017.41 1017.61 1017.85 1018.01 1018.21 1018.41 1018.61 1018.85 1019.13 1019.41 1019.69 1019.97 1020.25 1020.49 1020.69 1020.85 1021.01 1021.25 1021.45 1021.65 1021.85 1021.97 1022.17 1022.33 1022.49 1022.61 1022.69 1022.69 1022.77 1022.85 1022.89 1022.97 1023.09 1023.21 1023.25 1023.41 1023.53 1023.61 1023.69 1023.73 1023.77 1023.85 1023.89
1010.93 1011.25 1011.53 1011.85 1012.25 1012.61 1012.93 1013.17 1013.41 1013.61 1013.81 1014.01 1014.13 1014.41 1014.69 1014.97 1015.17 1015.41 1015.65 1015.89 1016.13 1016.41 1016.61 1016.85 1017.01 1017.21 1017.33 1017.53 1017.69 1017.89 1018.09 1018.25 1018.49 1018.73 1018.97 1019.29 1019.57 1019.85 1020.13 1020.37 1020.57 1020.77 1020.97 1021.17 1021.41 1021.53 1021.69 1021.85 1022.05 1022.21 1022.37 1022.45 1022.49 1022.57 1022.57 1022.69 1022.73 1022.85 1022.93 1023.01 1023.13 1023.25 1023.33 1023.41 1023.53 1023.57 1023.69 1023.69 1023.81
1010.85 1011.13 1011.37 1011.69 1012.09 1012.41 1012.73 1012.97 1013.17 1013.37 1013.61 1013.85 1014.01 1014.29 1014.61 1014.85 1015.09 1015.33 1015.61 1015.85 1016.13 1016.37 1016.61 1016.81 1016.97 1017.13 1017.29 1017.49 1017.65 1017.85 1018.05 1018.33 1018.57 1018.81 1019.01 1019.25 1019.53 1019.85 1020.09 1020.33 1020.57 1020.77 1020.97 1021.13 1021.33 1021.49 1021.61 1021.81 1021.97 1022.13 1022.21 1022.29 1022.33 1022.41 1022.41 1022.49 1022.57 1022.69 1022.77 1022.85 1022.97 1023.05 1023.17 1023.25 1023.33 1023.41 1023.49 1023.57 1023.65
1010.69 1010.97 1011.21 1011.53 1011.89 1012.25 1012.57 1012.77 1012.97 1013.17 1013.41 1013.69 1013.93 1014.21 1014.49 1014.77 1015.01 1015.29 1015.57 1015.85 1016.09 1016.33 1016.57 1016.73 1016.89 1017.09 1017.25 1017.45 1017.69 1017.85 1018.09 1018.37 1018.61 1018.85 1019.09 1019.33 1019.57 1019.85 1020.09 1020.33 1020.53 1020.73 1020.97 1021.13 1021.25 1021.41 1021.57 1021.73 1021.89 1021.97 1022.09 1022.17 1022.25 1022.25 1022.33 1022.41 1022.45 1022.57 1022.61 1022.69 1022.81 1022.89 1022.97 1023.09 1023.17 1023.25 1023.33 1023.41 1023.41
1010.57 1010.85 1011.09 1011.37 1011.69 1011.97 1012.29 1012.57 1012.77 1013.01 1013.29 1013.57 1013.85 1014.13 1014.41 1014.69 1014.97 1015.29 1015.57 1015.81 1016.05 1016.29 1016.53 1016.77 1016.93 1017.05 1017.21 1017.41 1017.65 1017.85 1018.13 1018.37 1018.65 1018.89 1019.13 1019.37 1019.57 1019.85 1020.09 1020.33 1020.57 1020.77 1020.97 1021.13 1021.25 1021.41 1021.53 1021.65 1021.77 1021.85 1021.97 1022.05 1022.13 1022.21 1022.25 1022.33 1022.37 1022.41 1022.53 1022.57 1022.65 1022.73 1022.81 1022.89 1022.97 1023.05 1023.13 1023.21 1023.25
1010.41 1010.69 1010.97 1011.21 1011.49 1011.77 1012.01 1012.33 1012.57 1012.85 1013.13 1013.41 1013.73 1014.09 1014.41 1014.69 1015.01 1015.33 1015.57 1015.81 1016.05 1016.29 1016.57 1016.85 1016.97 1017.09 1017.21 1017.41 1017.69 1017.93 1018.21 1018.45 1018.69 1018.97 1019.13 1019.37 1019.57 1019.81 1020.01 1020.29 1020.57 1020.77 1021.01 1021.21 1021.29 1021.37 1021.45 1021.53 1021.61 1021.69 1021.85 1021.93 1022.01 1022.09 1022.17 1022.25 1022.29 1022.41 1022.49 1022.53 1022.57 1022.61 1022.69 1022.69 1022.77 1022.85 1022.93 1022.97 1023.01
1010.29 1010.57 1010.77 1010.97 1011.21 1011.49 1011.77 1012.09 1012.41 1012.73 1013.05 1013.33 1013.69 1014.09 1014.45 1014.77 1015.09 1015.37 1015.61 1015.85 1016.09 1016.29 1016.57 1016.81 1017.01 1017.17 1017.33 1017.53 1017.77 1018.05 1018.33 1018.57 1018.81 1019.05 1019.25 1019.45 1019.61 1019.77 1019.97 1020.21 1020.53 1020.81 1021.09 1021.25 1021.29 1021.33 1021.37 1021.41 1021.45 1021.53 1021.61 1021.73 1021.85 1021.97 1022.09 1022.17 1022.25 1022.33 1022.41 1022.45 1022.53 1022.57 1022.57 1022.61 1022.65 1022.69 1022.73 1022.77 1022.85
1010.13 1010.37 1010.57 1010.77 1010.97 1011.29 1011.65 1011.97 1012.33 1012.69 1013.01 1013.37 1013.73 1014.13 1014.57 1014.89 1015.21 1015.49 1015.69 1015.85 1016.09 1016.29 1016.49 1016.69 1016.97 1017.25 1017.49 1017.73 1017.97 1018.21 1018.45 1018.69 1018.93 1019.21 1019.41 1019.61 1019.73 1019.85 1019.97 1020.25 1020.53 1020.81 1021.01 1021.13 1021.13 1021.17 1021.21 1021.21 1021.25 1021.33 1021.41 1021.53 1021.69 1021.85 1021.97 1022.09 1022.17 1022.25 1022.29 1022.41 1022.45 1022.45 1022.49 1022.49 1022.53 1022.53 1022.57 1022.57 1022.61
1009.97 1010.13 1010.33 1010.57 1010.89 1011.29 1011.69 1012.09 1012.41 1012.77 1013.13 1013.53 1013.85 1014.25 1014.65 1014.97 1015.29 1015.57 1015.77 1015.93 1016.13 1016.33 1016.53 1016.69 1016.93 1017.25 1017.57 1017.85 1018.09 1018.29 1018.53 1018.81 1019.09 1019.33 1019.57 1019.81 1019.97 1020.09 1020.21 1020.37 1020.53 1020.69 1020.85 1020.93 1020.97 1020.97 1020.97 1021.01 1021.05 1021.13 1021.25 1021.45 1021.57 1021.69 1021.85 1021.97 1022.09 1022.17 1022.25 1022.25 1022.29 1022.37 1022.41 1022.41 1022.41 1022.37 1022.37 1022.41 1022.41
1009.81 1009.97 1010.25 1010.65 1011.09 1011.53 1011.97 1012.37 1012.69 1013.01 1013.37 1013.69 1014.05 1014.41 1014.69 1015.01 1015.33 1015.61 1015.81 1015.97 1016.25 1016.45 1016.65 1016.85 1016.97 1017.25 1017.53 1017.81 1018.01 1018.25 1018.61 1019.01 1019.25 1019.41 1019.57 1019.93 1020.13 1020.25 1020.37 1020.45 1020.53 1020.61 1020.69 1020.73 1020.73 1020.77 1020.81 1020.89 1020.97 1021.05 1021.17 1021.33 1021.49 1021.61 1021.77 1021.89 1021.97 1022.09 1022.13 1022.21 1022.21 1022.25 1022.25 1022.25 1022.21 1022.17 1022.17 1022.17 1022.21
1010.09 1010.41 1010.69 1011.13 1011.49 1011.97 1012.37 1012.69 1013.01 1013.37 1013.69 1014.05 1014.33 1014.57 1014.77 1014.97 1015.29 1015.61 1015.89 1016.13 1016.37 1016.57 1016.69 1016.89 1017.01 1017.21 1017.41 1017.69 1017.97 1018.29 1018.65 1019.01 1019.21 1019.37 1019.57 1019.85 1020.13 1020.25 1020.33 1020.41 1020.41 1020.45 1020.49 1020.57 1020.57 1020.65 1020.73 1020.85 1020.93 1021.01 1021.13 1021.29 1021.41 1021.53 1021.69 1021.81 1021.89 1021.97 1022.01 1022.13 1022.13 1022.13 1022.09 1022.09 1022.05 1022.01 1022.01 1021.97 1021.97
1010.61 1010.89 1011.17 1011.53 1011.89 1012.29 1012.69 1013.01 1013.37 1013.69 1014.01 1014.29 1014.57 1014.85 1015.05 1015.17 1015.37 1015.65 1015.97 1016.21 1016.45 1016.65 1016.81 1016.97 1017.09 1017.25 1017.45 1017.73 1018.05 1018.37 1018.65 1018.89 1019.13 1019.33 1019.53 1019.73 1019.93 1020.09 1020.17 1020.21 1020.21 1020.25 1020.33 1020.45 1020.61 1020.69 1020.77 1020.85 1020.93 1021.01 1021.13 1021.25 1021.41 1021.53 1021.65 1021.77 1021.85 1021.89 1021.97 1021.97 1022.01 1022.01 1021.97 1021.97 1021.97 1021.93 1021.89 1021.85 1021.85
1010.97 1011.25 1011.53 1011.85 1012.17 1012.57 1012.93 1013.25 1013.53 1013.85 1014.17 1014.45 1014.73 1015.01 1015.29 1015.53 1015.69 1015.89 1016.13 1016.37 1016.57 1016.77 1016.93 1017.09 1017.21 1017.41 1017.65 1017.93 1018.21 1018.49 1018.69 1018.89 1019.09 1019.25 1019.41 1019.57 1019.73 1019.85 1019.93 1019.97 1020.01 1020.09 1020.21 1020.41 1020.57 1020.69 1020.77 1020.85 1020.93 1021.05 1021.13 1021.25 1021.37 1021.53 1021.65 1021.69 1021.77 1021.81 1021.85 1021.85 1021.93 1021.93 1021.93 1021.89 1021.85 1021.85 1021.85 1021.81 1021.73
1011.41 1011.61 1011.85 1012.13 1012.41 1012.69 1013.01 1013.33 1013.65 1013.97 1014.29 1014.61 1014.85 1015.17 1015.53 1015.85 1016.09 1016.13 1016.21 1016.41 1016.65 1016.85 1016.97 1017.17 1017.37 1017.61 1017.85 1018.09 1018.29 1018.53 1018.69 1018.89 1019.01 1019.17 1019.33 1019.45 1019.57 1019.69 1019.73 1019.85 1019.89 1019.97 1020.13 1020.41 1020.57 1020.69 1020.73 1020.85 1020.93 1021.01 1021.13 1021.21 1021.33 1021.45 1021.57 1021.65 1021.69 1021.73 1021.77 1021.81 1021.81 1021.81 1021.81 1021.81 1021.77 1021.73 1021.69 1021.69 1021.65
1011.73 1011.89 1012.05 1012.29 1012.57 1012.85 1013.13 1013.41 1013.69 1013.97 1014.25 1014.57 1014.85 1015.13 1015.41 1015.73 1015.97 1016.09 1016.13 1016.33 1016.57 1016.85 1017.01 1017.21 1017.45 1017.77 1018.01 1018.21 1018.41 1018.57 1018.69 1018.89 1019.01 1019.13 1019.21 1019.33 1019.41 1019.49 1019.61 1019.73 1019.85 1019.97 1020.13 1020.37 1020.53 1020.61 1020.69 1020.81 1020.89 1020.97 1021.09 1021.17 1021.25 1021.37 1021.49 1021.57 1021.61 1021.69 1021.69 1021.73 1021.69 1021.69 1021.69 1021.61 1021.53 1021.53 1021.53 1021.53 1021.49
1011.65 1011.89 1012.13 1012.41 1012.69 1012.93 1013.13 1013.41 1013.65 1013.85 1014.09 1014.37 1014.69 1014.93 1015.21 1015.53 1015.77 1015.93 1016.13 1016.29 1016.53 1016.73 1016.97 1017.21 1017.49 1017.81 1018.05 1018.25 1018.45 1018.65 1018.81 1018.93 1018.97 1019.09 1019.17 1019.25 1019.29 1019.41 1019.53 1019.69 1019.81 1019.97 1020.13 1020.33 1020.45 1020.57 1020.69 1020.73 1020.85 1020.93 1021.01 1021.13 1021.17 1021.25 1021.41 1021.49 1021.53 1021.61 1021.65 1021.65 1021.61 1021.57 1021.53 1021.45 1021.41 1021.37 1021.33 1021.29 1021.25
1011.65 1011.93 1012.21 1012.45 1012.69 1012.93 1013.17 1013.41 1013.65 1013.89 1014.13 1014.41 1014.61 1014.85 1015.13 1015.41 1015.65 1015.85 1016.09 1016.29 1016.53 1016.73 1016.93 1017.21 1017.53 1017.77 1018.01 1018.25 1018.45 1018.65 1018.81 1018.85 1018.89 1018.97 1019.01 1019.13 1019.21 1019.33 1019.45 1019.61 1019.73 1019.93 1020.13 1020.29 1020.41 1020.49 1020.57 1020.69 1020.77 1020.85 1020.97 1021.05 1021.13 1021.21 1021.29 1021.41 1021.45 1021.53 1021.53 1021.53 1021.53 1021.45 1021.41 1021.29 1021.21 1021.13 1021.09 1021.05 1021.01
1011.61 1011.89 1012.13 1012.41 1012.65 1012.89 1013.13 1013.41 1013.65 1013.93 1014.17 1014.41 1014.69 1014.93 1015.21 1015.45 1015.69 1015.85 1016.05 1016.25 1016.49 1016.73 1016.97 1017.21 1017.53 1017.73 1017.97 1018.17 1018.37 1018.53 1018.61 1018.69 1018.77 1018.85 1018.93 1019.01 1019.17 1019.29 1019.41 1019.57 1019.69 1019.85 1020.05 1020.25 1020.33 1020.41 1020.53 1020.61 1020.69 1020.81 1020.89 1020.97 1021.09 1021.13 1021.17 1021.25 1021.33 1021.37 1021.37 1021.37 1021.37 1021.29 1021.25 1021.17 1021.09 1021.01 1020.93 1020.85 1020.81
1011.53 1011.81 1012.05 1012.29 1012.57 1012.77 1013.01 1013.25 1013.57 1013.89 1014.13 1014.41 1014.69 1014.93 1015.17 1015.37 1015.57 1015.77 1015.97 1016.21 1016.45 1016.69 1016.97 1017.25 1017.49 1017.73 1017.93 1018.09 1018.25 1018.33 1018.41 1018.53 1018.61 1018.69 1018.81 1018.93 1019.05 1019.21 1019.37 1019.53 1019.61 1019.77 1019.97 1020.21 1020.29 1020.41 1020.45 1020.57 1020.61 1020.69 1020.81 1020.89 1020.97 1021.01 1021.09 1021.13 1021.17 1021.21 1021.21 1021.17 1021.13 1021.13 1021.13 1021.05 1020.97 1020.89 1020.81 1020.69 1020.69
1011.45 1011.73 1011.97 1012.17 1012.41 1012.69 1012.97 1013.25 1013.53 1013.85 1014.13 1014.37 1014.61 1014.85 1015.09 1015.25 1015.49 1015.69 1015.89 1016.13 1016.41 1016.69 1016.93 1017.17 1017.41 1017.65 1017.85 1017.97 1018.09 1018.17 1018.25 1018.37 1018.49 1018.61 1018.73 1018.89 1019.05 1019.21 1019.33 1019.49 1019.57 1019.73 1019.93 1020.13 1020.25 1020.33 1020.41 1020.45 1020.57 1020.61 1020.69 1020.77 1020.85 1020.85 1020.93 1020.97 1021.01 1021.01 1021.01 1021.01 1020.97 1020.97 1020.93 1020.89 1020.85 1020.77 1020.69 1020.61 1020.53
1011.37 1011.65 1011.85 1012.13 1012.41 1012.69 1012.97 1013.25 1013.53 1013.85 1014.09 1014.33 1014.57 1014.77 1014.97 1015.17 1015.41 1015.61 1015.85 1016.13 1016.41 1016.65 1016.89 1017.13 1017.37 1017.53 1017.69 1017.85 1017.97 1018.09 1018.21 1018.29 1018.45 1018.61 1018.73 1018.89 1019.01 1019.17 1019.37 1019.49 1019.57 1019.69 1019.85 1020.01 1020.13 1020.25 1020.33 1020.37 1020.41 1020.49 1020.57 1020.65 1020.73 1020.77 1020.81 1020.85 1020.85 1020.89 1020.89 1020.85 1020.85 1020.81 1020.73 1020.73 1020.69 1020.61 1020.57 1020.45 1020.41
1011.33 1011.57 1011.85 1012.13 1012.41 1012.69 1012.97 1013.25 1013.53 1013.81 1014.05 1014.25 1014.45 1014.69 1014.93 1015.13 1015.37 1015.61 1015.85 1016.13 1016.41 1016.69 1016.93 1017.17 1017.37 1017.53 1017.69 1017.81 1017.85 1018.01 1018.17 1018.29 1018.45 1018.61 1018.73 1018.89 1019.05 1019.21 1019.37 1019.49 1019.53 1019.65 1019.81 1019.93 1020.01 1020.13 1020.17 1020.25 1020.29 1020.37 1020.41 1020.57 1020.65 1020.69 1020.73 1020.77 1020.77 1020.77 1020.69 1020.69 1020.65 1020.61 1020.57 1020.53 1020.49 1020.45 1020.41 1020.33 1020.25
1011.33 1011.61 1011.85 1012.13 1012.41 1012.69 1012.97 1013.25 1013.53 1013.81 1014.05 1014.25 1014.49 1014.69 1014.97 1015.17 1015.41 1015.69 1015.93 1016.21 1016.49 1016.73 1016.97 1017.17 1017.37 1017.49 1017.61 1017.73 1017.85 1017.97 1018.13 1018.29 1018.49 1018.65 1018.81 1018.93 1019.05 1019.21 1019.33 1019.49 1019.53 1019.61 1019.73 1019.85 1019.93 1019.97 1020.05 1020.13 1020.17 1020.25 1020.37 1020.49 1020.61 1020.69 1020.69 1020.69 1020.69 1020.69 1020.61 1020.57 1020.53 1020.45 1020.41 1020.37 1020.33 1020.25 1020.25 1020.17 1020.09
1011.37 1011.61 1011.89 1012.17 1012.41 1012.69 1012.93 1013.17 1013.49 1013.81 1014.09 1014.29 1014.53 1014.77 1015.01 1015.25 1015.53 1015.77 1016.01 1016.25 1016.49 1016.69 1016.93 1017.13 1017.25 1017.41 1017.53 1017.65 1017.81 1017.97 1018.13 1018.29 1018.45 1018.65 1018.81 1018.93 1019.05 1019.21 1019.33 1019.41 1019.49 1019.53 1019.61 1019.69 1019.81 1019.85 1019.93 1019.97 1020.05 1020.13 1020.29 1020.49 1020.57 1020.61 1020.65 1020.65 1020.61 1020.57 1020.53 1020.49 1020.41 1020.33 1020.25 1020.21 1020.17 1020.13 1020.01 1019.97 1019.89
1011.37 1011.61 1011.89 1012.17 1012.37 1012.65 1012.93 1013.25 1013.53 1013.85 1014.13 1014.37 1014.61 1014.85 1015.09 1015.33 1015.53 1015.85 1016.09 1016.29 1016.45 1016.69 1016.89 1017.05 1017.21 1017.37 1017.49 1017.65 1017.81 1017.97 1018.13 1018.29 1018.49 1018.65 1018.81 1018.93 1019.05 1019.17 1019.25 1019.37 1019.41 1019.41 1019.49 1019.57 1019.69 1019.73 1019.77 1019.85 1019.97 1020.09 1020.25 1020.41 1020.49 1020.57 1020.57 1020.57 1020.53 1020.49 1020.41 1020.33 1020.25 1020.21 1020.13 1020.05 1019.97 1019.93 1019.85 1019.77 1019.69
1011.37 1011.65 1011.93 1012.17 1012.41 1012.69 1013.01 1013.33 1013.65 1013.93 1014.21 1014.45 1014.69 1014.93 1015.13 1015.37 1015.61 1015.85 1016.09 1016.25 1016.41 1016.65 1016.85 1017.01 1017.17 1017.29 1017.45 1017.69 1017.89 1018.05 1018.21 1018.37 1018.53 1018.69 1018.81 1018.93 1019.01 1019.13 1019.25 1019.29 1019.33 1019.33 1019.37 1019.49 1019.57 1019.69 1019.73 1019.81 1019.85 1020.01 1020.17 1020.29 1020.37 1020.41 1020.41 1020.41 1020.41 1020.37 1020.29 1020.25 1020.13 1020.05 1019.97 1019.89 1019.81 1019.73 1019.65 1019.53 1019.45
1011.41 1011.69 1011.97 1012.21 1012.53 1012.85 1013.13 1013.49 1013.77 1014.05 1014.29 1014.57 1014.77 1014.97 1015.17 1015.41 1015.61 1015.85 1016.01 1016.25 1016.41 1016.57 1016.77 1016.97 1017.17 1017.33 1017.53 1017.73 1017.93 1018.09 1018.25 1018.37 1018.49 1018.65 1018.81 1018.89 1018.97 1019.05 1019.17 1019.25 1019.25 1019.25 1019.25 1019.37 1019.49 1019.57 1019.65 1019.69 1019.77 1019.93 1020.09 1020.17 1020.21 1020.25 1020.25 1020.29 1020.29 1020.25 1020.21 1020.13 1020.01 1019.97 1019.85 1019.69 1019.65 1019.57 1019.45 1019.33 1019.25
1011.61 1011.85 1012.09 1012.37 1012.69 1012.97 1013.29 1013.57 1013.93 1014.17 1014.41 1014.61 1014.81 1014.97 1015.17 1015.37 1015.57 1015.81 1016.01 1016.25 1016.41 1016.57 1016.77 1016.97 1017.13 1017.37 1017.53 1017.77 1017.93 1018.09 1018.25 1018.37 1018.49 1018.61 1018.73 1018.85 1018.89 1018.97 1019.05 1019.13 1019.13 1019.17 1019.17 1019.21 1019.33 1019.41 1019.49 1019.53 1019.65 1019.77 1019.89 1020.01 1020.05 1020.09 1020.13 1020.17 1020.17 1020.13 1020.09 1019.97 1019.89 1019.85 1019.73 1019.57 1019.49 1019.41 1019.29 1019.17 1019.05
Wind_Speed
12 10 9 8 7 8 7 7 7 7 7 8 8 8 8 8 8 8 7 7 7 7 7 7 7 7 8 10 11 10 10 9 10 10 10 10 9 9 8 8 8 8 7 7 6 6 5 5 4 3 3 3 3 3 3 2 2 2 2 2 2 2 2 3 3 3 3 3 2
13 12 10 9 8 8 7 7 7 7 7 7 8 8 8 8 8 8 8 8 7 7 7 6 7 8 9 11 11 11 10 9 10 10 10 10 10 9 9 8 8 8 8 8 7 5 5 5 4 3 3 3 3 3 3 2 2 2 2 3 2 2 2 2 3 3 3 3 2
14 13 12 10 10 9 8 7 7 8 9 8 8 8 8 7 7 8 8 8 8 8 7 7 8 9 10 11 11 10 10 10 11 10 10 9 10 9 9 8 9 9 8 7 6 5 5 5 4 3 3 3 3 3 3 3 2 2 2 3 2 2 2 2 3 3 2 2 2
14 14 13 12 12 12 10 8 9 9 9 8 8 8 8 7 7 7 8 9 9 9 8 8 9 10 11 11 11 10 10 10 11 11 10 9 10 10 9 9 9 9 8 7 7 6 5 5 4 3 3 3 3 3 3 3 3 3 3 3 2 2 3 3 2 2 2 2 2
14 13 12 11 13 12 11 9 9 9 9 8 7 7 7 7 7 8 8 9 9 9 9 10 10 10 11 11 12 11 11 11 11 10 10 9 10 9 9 9 9 9 8 8 7 7 6 6 4 3 3 3 3 3 4 4 4 3 3 2 2 2 2 2 2 2 2 2 1
14 13 13 12 12 11 10 9 10 9 9 8 8 8 8 7 7 8 9 9 9 10 10 11 10 10 11 12 12 12 11 11 10 10 10 10 9 9 10 10 9 9 8 8 7 7 6 6 4 3 3 2 3 3 4 5 4 4 3 3 2 2 2 2 2 2 2 2 2
15 14 14 14 14 12 10 9 10 10 9 9 9 9 9 8 8 9 10 9 9 9 10 10 10 10 11 12 12 12 11 10 10 10 10 9 9 10 10 9 9 9 8 8 8 7 6 5 4 3 3 2 2 3 3 4 4 4 4 3 3 2 2 2 2 2 2 2 3
15 15 15 15 15 14 13 11 11 10 9 8 9 9 10 10 10 10 10 9 9 9 9 9 10 11 12 13 13 12 12 11 10 10 10 9 10 10 10 10 9 9 9 9 8 7 6 5 4 3 3 3 2 3 3 4 4 4 4 4 3 2 2 2 2 2 2 3 3
14 15 15 16 15 15 14 13 12 11 10 9 9 9 10 10 11 11 10 9 9 10 10 9 11 12 13 14 14 13 12 12 12 10 9 9 10 10 10 10 10 9 9 8 8 7 6 4 4 3 3 3 3 3 3 4 4 4 4 3 3 3 3 3 3 3 3 4 4
14 15 15 15 15 15 14 14 13 12 11 10 10 10 10 10 11 10 9 8 9 10 10 10 12 13 14 14 14 14 13 12 12 12 11 10 11 11 11 10 10 10 9 8 8 7 7 5 4 4 4 3 4 4 4 4 4 4 4 3 3 3 3 4 5 5 5 5 5
14 15 15 14 14 14 14 13 13 12 12 11 12 11 10 10 10 10 9 9 10 10 11 11 12 14 14 14 14 14 13 12 12 12 12 12 12 12 11 10 10 10 9 9 8 7 6 5 5 5 5 4 4 4 5 5 6 6 5 4 4 5 5 5 5 6 6 6 6
14 15 15 14 15 15 14 13 12 12 12 12 13 12 11 11 11 11 11 10 10 11 11 12 13 14 14 13 14 14 13 13 13 13 13 13 13 12 11 11 11 11 10 10 8 7 6 6 6 6 6 5 5 5 5 6 7 7 7 7 6 6 7 7 6 6 5 6 6
14 15 15 15 15 15 14 13 11 11 12 13 13 12 12 11 12 12 11 11 11 11 11 11 13 14 14 13 14 13 13 14 15 14 13 13 13 12 12 11 11 11 10 10 8 7 6 7 7 7 7 7 6 6 6 7 7 8 8 8 8 8 7 8 7 6 5 5 5
15 15 15 15 16 15 14 13 11 11 12 13 12 12 12 11 12 11 11 11 11 11 11 11 12 12 13 14 14 14 14 14 15 14 13 13 12 12 11 11 11 10 9 8 8 8 8 7 7 7 8 8 7 7 6 7 7 7 8 8 8 8 7 7 6 6 5 5 5
15 15 15 15 15 14 13 13 11 11 12 13 12 12 11 11 11 11 10 11 12 11 10 11 11 11 12 14 14 15 14 13 13 13 13 12 12 12 11 11 10 9 8 7 7 7 8 8 8 8 8 8 8 8 7 7 7 7 7 7 7 7 7 6 6 6 5 5 5
15 15 15 15 15 14 13 12 10 10 11 12 12 11 11 11 10 10 10 11 11 10 10 11 11 11 12 13 13 13 13 12 12 12 12 12 12 11 11 10 10 9 8 8 8 7 7 7 7 7 8 8 8 8 7 7 7 7 7 7 6 6 6 6 6 6 6 6 6
15 15 15 15 15 15 14 12 10 10 10 11 12 12 11 10 9 10 10 11 10 10 11 12 11 11 10 10 10 11 11 11 11 11 11 11 11 11 10 10 9 9 8 8 8 8 7 7 7 7 7 7 7 7 6 6 6 6 6 6 6 6 6 7 7 7 7 7 7
15 15 15 15 15 15 15 14 12 11 11 12 12 11 10 9 9 10 10 10 10 11 11 12 11 10 10 9 8 8 9 10 10 10 10 10 10 10 10 9 9 8 8 7 8 8 8 8 8 8 7 7 6 6 6 5 5 5 5 5 6 6 6 7 7 7 7 8 8
15 15 15 15 15 15 15 14 13 12 12 12 11 11 10 10 10 10 10 10 10 10 10 11 10 9 9 9 8 8 8 9 10 10 10 10 10 10 9 9 8 8 7 7 8 8 9 9 8 8 8 7 7 6 6 5 5 5 5 5 5 6 6 7 8 8 8 8 8
15 15 15 15 15 15 14 13 12 12 11 11 11 11 11 10 10 10 10 10 9 9 9 10 9 8 8 9 9 8 7 7 9 9 9 9 10 10 9 9 8 8 8 8 8 9 9 9 8 8 8 8 7 7 6 6 5 5 5 5 6 6 7 8 8 8 9 9 9
15 15 14 14 14 13 12 11 11 11 10 10 11 11 11 11 10 10 9 9 8 8 9 9 9 8 9 9 10 9 7 6 7 7 8 7 8 9 9 9 9 9 9 9 9 10 10 9 8 8 7 7 7 6 6 5 5 6 6 6 6 7 8 8 9 9 9 9 9
15 14 13 12 12 11 11 10 10 10 11 11 11 11 11 11 10 9 8 7 7 8 8 8 9 9 10 10 10 9 8 6 7 7 7 6 7 8 8 8 9 9 10 10 10 10 9 8 7 6 6 5 5 5 5 5 5 6 6 7 7 8 9 9 9 9 9 9 9
11 10 9 10 11 11 11 11 11 11 11 10 10 10 10 11 10 8 7 7 7 7 7 7 9 10 11 10 10 10 10 8 9 9 9 8 8 8 8 8 9 10 10 10 9 8 8 6 6 5 5 4 4 4 5 5 6 6 7 8 8 9 10 10 10 9 9 9 10
8 9 10 11 13 13 13 12 11 11 10 10 8 7 6 8 9 8 8 8 8 7 7 7 8 9 10 11 11 12 13 13 12 12 11 11 10 10 10 9 9 9 8 7 5 5 4 4 4 4 4 3 3 4 4 5 6 6 7 8 8 9 9 10 9 9 9 9 9
13 13 13 14 14 14 13 12 11 11 10 9 8 7 5 4 6 7 8 7 7 7 7 8 8 8 9 10 12 13 14 14 13 13 12 12 11 11 11 10 9 7 5 3 3 4 4 3 3 3 3 3 3 4 4 5 6 6 6 7 7 8 8 9 9 9 9 9 9
14 15 15 15 15 14 14 13 11 9 8 7 6 6 5 3 3 5 7 7 7 7 8 8 8 8 9 10 12 12 13 12 12 13 12 12 12 12 11 9 7 5 4 4 5 5 5 5 4 3 3 3 4 4 4 5 5 6 6 6 6 7 8 8 9 9 9 9 10
12 13 14 14 14 13 12 10 8 6 5 4 4 4 5 5 5 7 8 8 8 8 9 9 9 8 8 10 12 13 12 11 11 11 12 12 12 11 10 7 5 4 4 5 6 6 6 6 5 5 4 4 4 4 4 5 5 5 6 6 6 7 8 8 9 9 10 10 10
10 11 13 13 12 11 9 6 5 4 4 4 5 6 9 11 10 10 10 9 9 9 9 9 8 7 7 8 11 13 12 11 10 9 10 11 11 10 8 6 4 4 4 6 7 7 7 7 7 7 6 5 5 5 5 5 5 5 5 6 6 7 8 9 9 9 9 10 10
12 12 12 11 10 9 7 5 4 4 5 5 7 8 10 13 13 12 11 11 11 10 8 7 6 6 7 9 10 11 11 10 9 9 9 10 9 8 7 5 4 4 5 7 8 8 8 8 8 8 8 7 5 5 4 4 5 5 5 5 6 7 8 8 8 8 9 9 10
12 11 10 10 9 8 7 6 5 5 6 6 8 10 11 12 12 12 12 12 12 10 8 7 7 8 9 10 10 10 10 9 9 9 9 9 8 7 6 5 5 5 6 8 9 9 9 9 10 10 9 9 7 5 5 5 5 5 5 6 6 7 8 9 9 9 9 8 9
12 11 10 10 9 8 8 7 7 7 7 8 9 10 11 11 12 12 12 12 11 9 8 9 10 11 12 11 10 10 10 10 9 9 9 9 8 7 6 5 5 5 6 9 9 10 10 10 11 11 11 10 8 6 5 6 6 6 6 6 7 8 9 9 9 9 9 9 9
12 11 11 10 10 9 9 8 8 8 9 10 10 11 12 12 12 12 11 10 10 10 10 11 12 12 12 11 11 11 11 10 9 9 8 8 7 6 6 5 5 5 6 9 10 10 11 11 11 11 12 12 9 7 7 7 7 7 7 7 8 9 9 9 9 10 10 11 10
12 11 10 10 9 9 9 9 9 9 10 10 11 12 12 12 11 10 10 9 9 11 12 12 13 13 12 12 11 11 11 10 9 8 8 7 7 6 6 5 5 4 5 8 10 10 11 11 12 12 13 13 10 8 8 8 7 6 6 7 8 9 10 10 10 10 11 11 11
11 10 10 10 9 9 9 9 9 10 10 11 11 11 11 11 11 10 9 8 8 9 10 11 12 11 11 10 10 10 9 8 8 7 7 6 6 6 5 4 4 4 5 7 10 11 12 12 12 13 13 13 10 8 7 8 7 7 7 8 8 9 9 10 11 11 12 12 11
11 10 10 10 10 10 10 10 10 10 10 10 10 10 9 9 10 9 8 7 8 8 9 9 9 9 9 8 8 8 7 7 6 6 6 6 6 5 5 4 4 4 5 7 9 11 12 12 13 13 13 11 8 6 7 7 7 8 8 9 9 10 10 10 11 11 11 12 11
10 10 10 10 10 10 11 11 11 11 10 9 9 8 8 8 8 8 7 8 8 8 8 8 8 8 8 7 6 5 5 6 6 6 6 5 5 5 5 5 5 5 5 6 8 10 11 12 13 13 11 8 6 5 6 6 7 7 8 9 9 10 10 10 10 10 10 11 11
10 10 10 10 10 10 10 10 10 10 9 8 7 8 8 8 8 7 7 7 8 9 9 8 8 8 7 7 5 5 5 6 5 5 5 5 5 5 4 5 5 5 6 6 8 10 11 12 12 11 9 6 5 5 5 5 5 6 7 8 9 9 10 9 9 10 10 11 11
10 10 9 9 10 10 9 9 9 9 9 8 7 7 7 8 8 7 7 7 8 8 9 8 7 7 7 6 6 6 6 6 5 5 5 5 5 4 4 5 5 5 5 6 8 10 11 11 11 10 8 5 5 5 5 5 5 6 7 7 8 8 9 8 8 8 9 11 12
9 9 9 9 9 9 9 9 9 9 8 8 7 7 8 7 7 7 7 7 7 8 8 7 7 7 6 6 5 5 6 6 5 5 4 4 4 4 4 5 5 5 5 5 7 9 10 11 11 10 9 6 5 5 5 5 5 6 6 7 7 7 8 8 7 8 9 10 13
8 8 8 8 9 10 10 11 10 9 8 8 9 9 9 8 7 7 7 7 7 7 7 7 7 7 6 6 6 6 6 6 5 5 4 4 4 4 4 4 5 6 6 5 7 9 10 11 11 11 10 7 6 5 4 4 5 6 6 6 6 7 7 7 7 7 8 9 11
7 7 8 9 10 11 11 11 10 9 8 8 9 8 8 7 7 7 7 6 6 6 6 6 7 7 6 5 5 5 5 5 5 4 4 4 4 4 4 4 5 6 6 6 7 9 11 11 12 12 11 7 6 5 4 4 5 6 6 7 7 7 7 7 7 7 8 8 9
Wind_Direction
181 181 180 174 167 167 171 175 174 172 171 175 177 175 172 171 170 167 165 165 168 170 171 172 174 174 173 173 175 175 174 169 163 160 160 162 166 168 167 160 152 150 150 151 153 157 162 165 164 163 162 160 159 154 146 137 142 152 168 189 196 185 173 172 186 197 202 201 197
182 180 178 170 166 168 172 176 174 172 171 174 176 173 170 170 169 167 166 167 169 170 170 170 173 173 173 173 175 175 174 168 164 162 162 165 168 167 164 155 152 152 153 154 155 159 166 169 166 164 161 158 155 148 139 134 141 161 184 199 199 188 181 183 193 201 204 205 201
183 180 176 170 169 171 174 178 176 174 173 174 174 171 167 168 167 167 167 167 170 171 170 170 174 173 172 171 174 175 173 168 165 164 165 167 168 166 161 154 153 154 156 155 157 161 168 170 165 161 158 158 156 150 144 143 153 175 198 207 201 190 184 189 198 201 201 200 200
185 180 176 171 172 174 176 179 176 174 173 172 173 170 166 167 166 166 166 166 171 173 173 172 174 173 171 170 173 174 172 168 166 165 166 168 167 164 159 155 155 156 157 157 158 163 167 169 162 156 155 160 164 161 157 154 167 183 202 211 203 192 187 190 195 197 196 193 193
186 181 174 171 174 176 177 178 173 171 170 170 172 170 167 168 166 165 165 167 174 175 174 172 173 172 170 169 172 172 171 168 166 166 168 169 166 162 159 157 157 157 157 158 161 164 167 165 158 155 158 165 174 173 168 162 171 183 198 208 205 197 190 189 193 192 188 179 172
186 179 173 170 174 176 176 175 169 167 168 169 173 173 171 169 167 167 168 170 173 173 171 170 171 169 168 168 170 171 170 168 167 167 168 168 165 161 159 159 159 158 158 160 163 165 165 162 156 155 161 172 188 189 181 169 172 180 191 201 204 200 192 190 191 186 178 171 174
186 178 172 171 175 176 176 172 167 166 168 171 176 177 174 169 168 168 168 167 169 170 169 170 169 167 165 167 170 171 170 167 166 167 168 167 164 162 161 161 161 160 160 161 163 165 164 160 155 156 162 173 195 202 194 178 175 179 187 195 198 196 192 191 189 185 182 189 194
186 178 172 172 176 177 176 172 169 168 170 173 179 180 176 169 168 167 165 164 167 169 170 170 168 165 165 167 170 171 169 167 166 167 168 165 164 163 163 163 163 163 162 162 164 165 164 159 158 159 164 174 193 204 204 192 183 183 188 195 197 192 185 181 181 185 196 207 210
185 177 172 172 176 178 177 175 171 172 174 177 183 181 174 166 167 166 165 165 168 169 170 170 167 165 164 168 170 170 169 168 167 168 168 166 165 165 165 165 166 165 163 162 163 164 162 159 161 165 169 177 187 197 202 201 194 192 194 199 203 201 193 181 182 190 201 212 217
184 176 171 171 175 177 177 177 175 175 177 180 185 180 170 162 165 166 167 167 168 169 170 170 166 164 165 168 170 170 170 169 169 170 170 170 170 169 168 168 169 167 164 163 163 162 161 159 166 173 179 183 188 195 200 202 202 202 202 204 213 218 215 201 193 195 201 209 213
183 175 171 170 173 175 176 178 177 178 180 184 185 177 166 160 164 166 168 168 167 169 170 168 165 164 166 169 170 170 170 170 170 172 173 173 173 172 171 171 171 168 165 163 162 161 160 161 172 182 189 192 197 203 207 207 207 208 208 206 214 223 228 224 212 206 204 207 208
180 175 171 169 172 174 176 180 180 181 183 187 185 176 166 163 165 167 168 167 167 168 169 167 165 165 167 170 171 171 171 171 171 173 174 175 175 174 172 171 172 170 167 164 162 162 164 170 180 188 195 199 205 212 215 213 212 212 212 210 212 220 228 233 228 221 214 208 207
177 174 172 170 172 175 178 181 182 183 184 188 184 176 168 167 168 169 169 166 166 167 168 167 166 167 169 172 172 172 173 173 173 174 174 175 174 173 171 171 173 171 168 164 162 164 170 177 184 191 199 206 211 215 218 219 218 218 217 215 214 218 224 231 233 232 227 218 211
176 175 174 171 173 175 179 182 184 184 185 188 183 175 169 169 170 170 168 165 166 167 167 166 167 169 172 173 174 174 175 174 174 173 173 172 171 170 170 171 173 171 167 161 162 167 174 180 187 194 203 212 218 220 220 221 223 224 223 221 219 219 222 226 231 233 233 229 223
176 176 176 173 173 176 180 184 185 186 186 187 181 174 169 171 171 169 166 164 166 166 166 167 169 172 174 175 176 176 175 174 173 171 169 167 167 167 168 169 171 169 164 158 162 169 177 184 191 199 208 218 223 224 224 223 225 227 227 225 224 222 222 223 227 230 232 233 232
176 178 178 176 175 177 181 185 186 185 184 184 178 172 169 170 169 166 164 164 165 165 166 169 171 174 176 177 177 175 174 171 169 167 165 164 164 165 166 167 168 166 164 161 165 171 180 187 195 204 214 222 227 230 230 229 229 228 227 226 225 225 225 225 227 229 231 231 232
178 180 180 179 178 179 182 186 185 182 179 179 175 170 168 168 164 162 162 164 165 166 168 171 173 174 176 176 175 172 169 166 164 163 163 162 162 163 164 165 165 166 167 168 172 179 187 191 199 209 217 225 231 235 237 237 237 235 232 228 227 227 227 229 230 232 233 233 234
178 180 182 182 181 182 183 185 181 177 174 175 172 168 164 162 159 159 161 165 165 167 170 173 175 175 174 171 168 164 162 160 161 161 161 159 160 161 162 162 164 166 171 177 185 192 197 200 204 209 215 222 228 234 239 244 247 249 247 242 238 234 232 232 233 235 236 237 238
179 181 184 185 184 182 181 180 176 173 171 172 166 161 157 154 154 156 159 164 165 167 171 174 176 174 170 163 157 153 152 156 158 159 159 158 158 160 160 160 163 168 177 189 199 205 208 209 208 209 211 216 221 226 232 238 245 252 255 256 253 249 244 240 238 238 238 240 241
179 182 185 186 184 181 176 172 168 165 164 162 156 151 148 147 148 152 157 162 162 165 169 173 173 168 160 152 146 144 145 150 155 157 157 158 159 160 160 161 166 176 188 201 208 214 217 218 214 211 210 212 216 219 223 227 234 242 248 255 257 257 255 251 247 244 242 242 243
180 183 185 184 179 172 164 156 151 149 147 143 142 141 141 142 144 150 156 160 160 165 169 171 164 156 149 144 142 140 140 140 148 152 155 157 160 161 163 166 175 186 197 207 213 217 220 222 218 213 209 209 211 214 217 221 229 236 242 247 251 254 256 255 252 249 246 245 245
182 182 179 173 162 150 139 133 131 131 131 132 135 137 139 142 146 151 156 158 161 166 168 160 150 146 144 143 142 139 137 135 145 152 156 158 163 166 170 175 185 195 205 212 216 218 219 219 215 210 207 206 209 213 218 224 233 239 243 245 248 251 253 253 252 250 247 246 245
177 166 149 133 124 118 115 114 114 116 119 122 126 132 140 146 148 151 155 159 164 165 159 144 142 143 145 146 144 142 142 149 157 161 163 166 171 176 182 188 197 204 210 215 217 217 216 213 210 206 203 203 214 223 230 235 240 244 246 248 249 251 253 253 251 249 247 245 245
112 105 101 101 102 103 103 103 103 104 104 102 99 104 121 140 143 148 156 164 165 161 152 141 142 144 145 146 148 150 155 162 166 167 169 173 178 185 193 199 204 209 212 214 212 208 203 199 199 199 201 206 221 233 239 242 244 246 248 250 252 254 256 257 256 255 253 250 248
91 94 97 99 101 102 102 101 100 98 95 89 79 69 67 97 133 146 155 160 155 148 142 138 140 142 144 148 154 158 163 167 169 170 173 178 184 192 199 204 207 208 205 191 164 153 152 157 168 183 199 213 227 238 245 246 246 247 248 249 252 255 258 260 261 262 262 261 259
97 100 102 105 107 108 108 107 103 98 93 89 84 76 68 66 132 157 159 150 143 139 138 140 144 147 150 155 160 163 166 168 170 173 177 183 190 197 203 206 204 197 179 148 140 139 140 145 154 168 188 211 228 240 247 251 252 252 253 253 253 254 255 257 259 260 262 265 265
102 106 109 112 114 116 117 117 115 114 113 111 120 125 130 138 169 180 173 153 147 145 146 147 152 154 157 161 165 167 169 170 172 176 181 188 195 200 202 203 194 177 155 142 145 148 152 157 164 172 185 206 222 234 243 251 257 261 263 263 261 258 255 253 253 254 256 258 261
124 121 120 119 122 123 125 127 141 160 171 175 176 168 161 160 177 185 180 161 156 155 155 156 158 159 161 165 169 171 172 173 176 181 187 194 199 199 198 195 182 162 147 148 154 160 166 174 180 185 191 203 216 228 237 246 254 260 264 265 264 261 258 254 251 250 249 250 253
133 131 129 129 131 133 133 132 148 163 171 173 173 169 166 166 177 182 180 168 165 164 163 161 158 158 162 168 171 174 176 178 182 188 193 197 197 194 189 184 174 158 151 155 164 172 179 186 191 194 197 201 212 223 233 241 248 254 257 260 260 261 260 257 253 249 246 245 246
140 141 141 143 146 147 148 146 144 143 143 146 153 156 160 166 174 178 177 172 172 170 166 159 157 160 165 170 173 177 181 186 189 192 194 195 193 189 184 178 174 165 160 164 173 181 188 195 198 200 201 202 209 220 230 237 243 247 251 255 258 260 262 263 260 257 252 248 246
148 152 155 159 163 166 167 162 154 148 144 144 150 155 161 168 174 176 176 174 173 170 163 156 159 164 168 172 176 181 186 189 190 191 191 190 188 185 181 178 181 176 170 172 181 189 195 200 203 204 204 202 208 216 226 233 238 241 246 250 254 259 263 267 268 267 264 260 256
154 160 164 169 174 175 173 166 160 155 153 154 158 163 168 173 176 177 175 172 167 163 160 159 163 168 172 177 181 185 188 190 188 187 186 184 183 182 181 182 189 186 179 178 187 195 201 206 207 208 207 204 209 216 223 229 234 238 243 248 253 257 261 265 269 271 271 270 267
157 163 168 172 173 171 167 161 159 159 160 162 166 170 173 175 175 174 172 166 160 159 160 163 167 172 177 181 184 187 189 189 185 183 181 179 179 179 181 185 193 194 189 185 193 200 206 210 212 212 211 208 212 217 223 227 232 237 241 246 251 255 259 263 266 268 270 272 271
157 162 165 166 163 161 159 157 158 160 163 167 170 173 173 171 170 170 167 158 156 158 162 166 171 176 181 184 186 187 187 185 180 177 176 175 175 178 182 190 199 203 200 195 199 204 209 213 215 215 214 211 214 219 225 228 233 237 240 245 249 252 256 259 262 265 267 269 269
155 158 159 157 156 156 156 158 159 161 165 169 170 169 167 164 165 163 158 150 152 157 162 167 173 178 183 186 185 183 180 175 172 171 171 172 174 179 187 198 210 218 214 204 203 205 210 213 216 217 216 213 216 223 228 231 235 239 242 246 250 253 255 258 260 263 265 266 268
154 155 155 154 155 157 159 160 160 162 164 167 163 160 158 157 158 155 150 148 153 159 164 169 174 179 183 183 180 175 169 166 165 165 167 170 174 183 194 208 224 232 228 212 205 206 209 213 216 216 214 212 217 224 229 233 238 242 246 249 253 255 257 259 261 263 264 265 265
153 153 153 154 157 160 161 158 157 158 159 157 153 152 152 153 152 150 150 152 158 163 167 170 175 179 180 177 171 165 160 158 158 161 164 171 179 190 204 218 233 240 236 217 206 205 208 211 213 212 208 206 214 222 228 232 239 244 248 252 255 257 259 261 261 262 262 262 262
153 152 152 155 158 157 153 147 146 147 149 148 147 149 151 152 152 153 155 158 164 167 169 170 174 175 173 168 163 158 156 156 157 161 168 180 191 203 215 228 239 246 242 221 206 204 206 210 210 205 199 200 210 218 225 231 238 244 249 253 256 258 259 260 260 260 260 259 258
151 150 150 152 149 145 140 135 136 139 142 144 148 152 155 156 156 157 160 164 168 168 168 169 170 169 165 159 158 158 159 161 162 166 175 192 203 213 223 233 245 254 252 231 207 202 204 208 206 200 195 198 208 217 224 231 239 245 250 254 259 261 261 261 261 261 260 258 257
142 141 140 139 136 134 135 136 137 139 142 147 154 159 161 161 159 159 161 165 167 167 166 166 167 164 159 155 158 161 165 168 169 173 182 201 211 218 224 233 245 255 256 241 211 203 203 206 203 197 194 200 209 217 225 233 242 249 254 258 262 265 266 264 263 263 262 262 259
125 127 127 127 129 133 136 139 140 143 147 154 161 164 165 162 157 157 159 163 166 165 165 166 163 158 151 148 155 161 166 172 175 179 189 207 219 223 225 233 243 251 253 245 216 205 203 205 202 197 195 200 209 218 226 234 244 252 257 261 264 267 269 270 268 267 266 266 264